Weather History for K3I2 - October, 2013

Change the Weather History Date:

Saturday, October 5, 2013

  Actual Average (KHTS) Record (KHTS)
Temperature  
Mean Temperature 74 °F 60 °F  
Max Temperature 86 °F 72 °F 90 °F (1941)
Min Temperature 62 °F 49 °F 31 °F (1965)
Degree Days  
Heating Degree Days 0 6  
Month to date heating degree days 28  
Since 1 July heating degree days 86  
Cooling Degree Days 9 1  
Month to date cooling degree days 7  
Year to date cooling degree days 1118  
Growing Degree Days 24 (Base 50)    
Moisture  
Dew Point 66 °F    
Average Humidity 81    
Maximum Humidity 100    
Minimum Humidity 55    
Precipitation  
Precipitation 0.00 in 0.09 in 1.39 in (2006)
Month to date precipitation 0.42  
Year to date precipitation 33.45  
Snow  
Snow 0.00 in - - ()
Month to date snowfall  
Since 1 September snowfall  
Snow Depth -    
Sea Level Pressure  
Sea Level Pressure 30.07 in    
Wind  
Wind Speed 1 mph (SW)    
Max Wind Speed 9 mph    
Max Gust Speed -    
Visibility 9 miles    
Events Rain    
T = Trace of Precipitation, MM = Missing Value Source: NWS Daily Summary

Daily Weather History Graph

Daily Weather History Graph

Search for Another Location

Airport or City:

Trip Planner

Search our weather history database for the weather conditions in past years. The results will help you decide how hot, cold, wet, or windy it might be!

Date:

Astronomy

Oct. 05, 2013 Rise Set
Actual Time 7:28 AM EDT 7:04 PM EDT
Civil Twilight 7:01 AM EDT 7:31 PM EDT
Nautical Twilight 6:30 AM EDT 8:01 PM EDT
Astronomical Twilight 5:59 AM EDT 8:32 PM EDT
Moon 8:05 AM EDT (10/5) 7:23 PM EDT (10/5)
Length of Visible Light 12h 29m
Length of Day
11h 36m
New Moon, 0% of the Moon is Illuminated
Oct 5
New Moon
Oct 11
First Quarter
Oct 18
Full
Oct 26
Last Quarter
Nov 3
New

Hourly Weather History & Observations

Time (EDT) Temp. Heat Index Dew Point Humidity Pressure Visibility Wind Dir Wind Speed Gust Speed Precip Events Conditions
12:15 AM 64.4 °F - 62.6 °F 94% 30.11 in 5.0 mi Calm Calm - N/A   Clear
12:35 AM 64.4 °F - 62.6 °F 94% 30.11 in 7.0 mi Calm Calm - N/A   Clear
12:55 AM 64.4 °F - 62.6 °F 94% 30.11 in 5.0 mi Calm Calm - N/A   Clear
1:15 AM 64.4 °F - 62.6 °F 94% 30.11 in 7.0 mi Calm Calm - N/A   Clear
1:35 AM 64.4 °F - 62.6 °F 94% 30.11 in 5.0 mi Calm Calm - N/A   Clear
1:55 AM 62.6 °F - 62.6 °F 100% 30.11 in 7.0 mi Calm Calm - N/A   Clear
2:15 AM 62.6 °F - 62.6 °F 100% 30.11 in 5.0 mi Calm Calm - N/A   Clear
2:35 AM 62.6 °F - 62.6 °F 100% 30.11 in 7.0 mi Calm Calm - N/A   Clear
2:55 AM 62.6 °F - 62.6 °F 100% 30.11 in 7.0 mi Calm Calm - N/A   Clear
3:15 AM 64.4 °F - 62.6 °F 94% 30.11 in 5.0 mi Calm Calm - N/A   Clear
3:35 AM 64.4 °F - 62.6 °F 94% 30.10 in 7.0 mi Calm Calm - N/A   Clear
3:55 AM 64.4 °F - 62.6 °F 94% 30.10 in 7.0 mi Calm Calm - N/A   Clear
4:15 AM 64.4 °F - 62.6 °F 94% 30.10 in 7.0 mi Calm Calm - N/A   Clear
4:35 AM 64.4 °F - 62.6 °F 94% 30.10 in 7.0 mi Calm Calm - N/A   Clear
4:55 AM 64.4 °F - 62.6 °F 94% 30.11 in 7.0 mi Calm Calm - N/A   Clear
5:15 AM 64.4 °F - 62.6 °F 94% 30.11 in 7.0 mi Calm Calm - N/A   Clear
5:35 AM 64.4 °F - 62.6 °F 94% 30.11 in 7.0 mi Calm Calm - N/A   Clear
5:55 AM 64.4 °F - 62.6 °F 94% 30.11 in 7.0 mi Calm Calm - N/A   Clear
6:15 AM 64.4 °F - 62.6 °F 94% 30.11 in 10.0 mi Calm Calm - N/A   Clear
6:35 AM 64.4 °F - 62.6 °F 94% 30.11 in 7.0 mi Calm Calm - N/A   Clear
6:55 AM 64.4 °F - 62.6 °F 94% 30.11 in 7.0 mi Calm Calm - N/A   Clear
7:15 AM 64.4 °F - 62.6 °F 94% 30.12 in 7.0 mi Calm Calm - N/A   Clear
7:35 AM 64.4 °F - 62.6 °F 94% 30.12 in 7.0 mi Calm Calm - N/A   Scattered Clouds
7:55 AM 64.4 °F - 62.6 °F 94% 30.12 in 5.0 mi Calm Calm - N/A   Mostly Cloudy
8:15 AM 64.4 °F - 64.4 °F 100% 30.12 in 7.0 mi Calm Calm - N/A   Mostly Cloudy
8:35 AM 66.2 °F - 64.4 °F 94% 30.12 in 5.0 mi Calm Calm - N/A   Mostly Cloudy
8:55 AM 68.0 °F - 66.2 °F 94% 30.12 in 10.0 mi Calm Calm - N/A   Overcast
9:15 AM 71.6 °F - 66.2 °F 83% 30.12 in 10.0 mi Calm Calm - N/A   Mostly Cloudy
9:35 AM 71.6 °F - 64.4 °F 78% 30.12 in 10.0 mi Calm Calm - N/A   Scattered Clouds
9:55 AM 73.4 °F - 66.2 °F 78% 30.12 in 10.0 mi SW 3.5 mph - N/A   Clear
10:15 AM 77.0 °F - 66.2 °F 69% 30.12 in 10.0 mi SW 4.6 mph - N/A   Scattered Clouds
10:35 AM 75.2 °F - 66.2 °F 73% 30.12 in 10.0 mi Calm Calm - N/A   Overcast
10:55 AM 77.0 °F - 66.2 °F 69% 30.12 in 10.0 mi Calm Calm - N/A   Overcast
11:15 AM 77.0 °F - 68.0 °F 74% 30.12 in 10.0 mi WSW 5.8 mph - N/A   Mostly Cloudy
11:35 AM 77.0 °F - 66.2 °F 69% 30.11 in 10.0 mi WSW 3.5 mph - N/A   Mostly Cloudy
11:55 AM 77.0 °F - 66.2 °F 69% 30.11 in 10.0 mi SSW 3.5 mph - N/A   Scattered Clouds
12:15 PM 82.4 °F 85.4 °F 68.0 °F 62% 30.11 in 10.0 mi SW 5.8 mph - N/A   Scattered Clouds
12:35 PM 84.2 °F 87.3 °F 68.0 °F 58% 30.10 in 10.0 mi SW 4.6 mph - N/A   Scattered Clouds
12:55 PM 84.2 °F 87.3 °F 68.0 °F 58% 30.09 in 10.0 mi SW 4.6 mph - N/A   Clear
1:15 PM 86.0 °F 89.4 °F 68.0 °F 55% 30.08 in 10.0 mi SW 5.8 mph - N/A   Scattered Clouds
1:35 PM 86.0 °F 89.4 °F 68.0 °F 55% 30.07 in 10.0 mi WSW 6.9 mph - N/A   Scattered Clouds
1:55 PM 86.0 °F 89.4 °F 68.0 °F 55% 30.06 in 10.0 mi SSW 4.6 mph - N/A   Scattered Clouds
2:15 PM 84.2 °F 87.3 °F 68.0 °F 58% 30.06 in 10.0 mi SSW 9.2 mph - N/A   Clear
2:35 PM 82.4 °F 85.4 °F 68.0 °F 62% 30.06 in 10.0 mi SW 6.9 mph - N/A   Clear
2:55 PM 86.0 °F 89.4 °F 68.0 °F 55% 30.05 in 10.0 mi South 5.8 mph - N/A   Clear
3:15 PM 82.4 °F 85.4 °F 68.0 °F 62% 30.05 in 10.0 mi South 4.6 mph - N/A   Clear
3:35 PM 86.0 °F 89.4 °F 68.0 °F 55% 30.04 in 10.0 mi West 4.6 mph - N/A   Clear
3:55 PM 84.2 °F 87.3 °F 68.0 °F 58% 30.04 in 10.0 mi SW 8.1 mph - N/A   Scattered Clouds
4:15 PM 86.0 °F 89.4 °F 68.0 °F 55% 30.03 in 10.0 mi SW 5.8 mph - N/A   Scattered Clouds
4:35 PM 82.4 °F 85.4 °F 68.0 °F 62% 30.02 in 10.0 mi SW 5.8 mph - N/A   Clear
4:55 PM 82.4 °F 85.4 °F 68.0 °F 62% 30.02 in 10.0 mi Calm Calm - N/A   Clear
5:15 PM 82.4 °F 85.4 °F 68.0 °F 62% 30.02 in 10.0 mi Calm Calm - N/A   Clear
5:35 PM 80.6 °F 83.2 °F 68.0 °F 65% 30.02 in 10.0 mi Calm Calm - N/A   Clear
5:55 PM 80.6 °F 84.6 °F 71.6 °F 74% 30.01 in 10.0 mi Calm Calm - N/A   Clear
6:15 PM 78.8 °F - 71.6 °F 78% 30.02 in 10.0 mi Calm Calm - N/A   Clear
6:35 PM 77.0 °F - 71.6 °F 83% 30.02 in 10.0 mi Calm Calm - N/A   Clear
6:55 PM 77.0 °F - 71.6 °F 83% 30.01 in 10.0 mi Calm Calm - N/A   Scattered Clouds
7:15 PM 75.2 °F - 69.8 °F 83% 30.01 in 10.0 mi Calm Calm - N/A   Scattered Clouds
7:35 PM 73.4 °F - 69.8 °F 88% 30.01 in 10.0 mi Calm Calm - N/A   Scattered Clouds
7:55 PM 73.4 °F - 69.8 °F 88% 30.01 in 10.0 mi Calm Calm - N/A   Scattered Clouds
8:15 PM 73.4 °F - 69.8 °F 88% 30.01 in 10.0 mi Calm Calm - N/A   Mostly Cloudy
8:35 PM 73.4 °F - 69.8 °F 88% 30.02 in 10.0 mi Calm Calm - N/A   Overcast
8:55 PM 73.4 °F - 69.8 °F 88% 30.02 in 10.0 mi Calm Calm - N/A   Overcast
9:15 PM 73.4 °F - 69.8 °F 88% 30.01 in 10.0 mi Calm Calm - N/A Rain Light Rain
9:35 PM 77.0 °F - 69.8 °F 78% 30.00 in 10.0 mi Calm Calm - N/A   Scattered Clouds
9:55 PM 75.2 °F - 69.8 °F 83% 30.00 in 10.0 mi Calm Calm - N/A   Clear
10:15 PM 75.2 °F - 68.0 °F 78% 29.99 in 10.0 mi Calm Calm - N/A   Clear
10:35 PM 73.4 °F - 68.0 °F 83% 29.99 in 10.0 mi Calm Calm - N/A   Clear
10:55 PM 71.6 °F - 68.0 °F 88% 30.00 in 10.0 mi West 3.5 mph - N/A   Scattered Clouds
11:15 PM 71.6 °F - 68.0 °F 88% 30.00 in 10.0 mi Calm Calm - N/A   Scattered Clouds
11:35 PM 69.8 °F - 68.0 °F 94% 30.00 in 10.0 mi Calm Calm - N/A   Scattered Clouds
11:55 PM 69.8 °F - 68.0 °F 94% 30.00 in 7.0 mi Calm Calm - N/A   Scattered Clouds